Location: *
(51.2167°N, 10.0667°E)
Time: 12:28:56
(UTC+00:00)

Cosmos 2026 Rocket - Pass Details

Date: 12 December 2019
Orbit: 940 x 1000 km, 82.9° (Epoch: 20 January)

Event Time Altitude Azimuth Distance (km) Brightness Sun altitude
Rises 16:57:17 0° 174° (S) 3,594 7.1 -15.4°
Reaches altitude 10° 16:59:48 10° 170° (S) 2,652 6.4 -15.8°
Maximum altitude 17:05:42 58° 93° (E) 1,092 3.9 -16.6°
Drops below altitude 10° 17:11:39 10° 16° (NNE) 2,676 6.0 -17.5°
Sets 17:14:11 0° 13° (NNE) 3,631 6.7 -17.9°
